Morristown, NJ

4:48 PM EDT on June 19, 2018 (GMT -0400)
Morristown Municipal

Weather History for KMMU - October, 2017

Change the Weather History Date:

Monday, October 30, 2017

  Actual Average Record
Temperature  
Mean Temperature 52 °F -  
Max Temperature 57 °F 61 °F 84 °F (1946)
Min Temperature 46 °F 33 °F 22 °F (1962)
Degree Days  
Heating Degree Days 14    
Growing Degree Days 2 (Base 50)    
Moisture  
Dew Point 43 °F    
Average Humidity 75    
Maximum Humidity 100    
Minimum Humidity 41    
Precipitation  
Precipitation 0.12 in - - ()
Sea Level Pressure  
Sea Level Pressure 29.38 in    
Wind  
Wind Speed 9 mph (West)    
Max Wind Speed 26 mph    
Max Gust Speed 39 mph    
Visibility 10 miles    
Events Rain    
Averages and records for this station are not official NWS values.
T = Trace of Precipitation, MM = Missing Value Source: NWS Daily Summary

Daily Weather History Graph

Daily Weather History Graph

Search for Another Location

Airport or City:

Astronomy

Oct. 30, 2017 Rise Set
Actual Time 7:26 AM EDT 5:55 PM EDT
Civil Twilight 6:57 AM EDT 6:24 PM EDT
Nautical Twilight 6:25 AM EDT 6:56 PM EDT
Astronomical Twilight 5:53 AM EDT 7:28 PM EDT
Moon 3:45 PM EDT (10/30) 2:05 AM EDT (10/30)
Length of Visible Light 11h 26m
Length of Day
10h 29m
Waxing Gibbous, 76% of the Moon is Illuminated
Oct 30
Waxing Gibbous
Nov 4
Full
Nov 10
Last Quarter
Nov 18
New
Nov 26
First Quarter

Hourly Weather History & Observations

Time (EDT) Temp. Windchill Dew Point Humidity Pressure Visibility Wind Dir Wind Speed Gust Speed Precip Events Conditions
12:15 AM 57.2 °F - 57.2 °F 100% 28.95 in 10.0 mi West 10.4 mph 19.6 mph N/A   Scattered Clouds
12:35 AM 55.4 °F - 55.4 °F 100% 28.96 in 10.0 mi WNW 9.2 mph 19.6 mph N/A   Clear
12:50 AM 53.6 °F - 53.6 °F 100% 28.98 in 10.0 mi NNW 3.5 mph - N/A   Clear
1:15 AM 53.6 °F - 53.6 °F 100% 28.99 in 10.0 mi NNW 8.1 mph - N/A   Clear
1:35 AM 53.6 °F - 53.6 °F 100% 29.01 in 10.0 mi North 4.6 mph - N/A   Clear
1:55 AM 53.6 °F - 53.6 °F 100% 29.03 in 10.0 mi SSW 3.5 mph - N/A   Scattered Clouds
2:15 AM 51.8 °F - 51.8 °F 100% 29.05 in 10.0 mi Calm Calm - N/A   Scattered Clouds
2:35 AM 53.6 °F - 53.6 °F 100% 29.05 in 10.0 mi West 4.6 mph - N/A   Overcast
3:15 AM 53.6 °F - 53.6 °F 100% 29.06 in 10.0 mi WNW 4.6 mph - N/A   Overcast
3:35 AM 53.6 °F - 51.8 °F 94% 29.05 in 10.0 mi NW 5.8 mph - N/A   Overcast
3:55 AM 53.6 °F - 50.0 °F 88% 29.05 in 10.0 mi NNW 6.9 mph - N/A   Overcast
4:15 AM 53.6 °F - 50.0 °F 88% 29.05 in 10.0 mi NNW 9.2 mph - N/A Rain Rain
4:35 AM 51.8 °F - 48.2 °F 88% 29.06 in 10.0 mi WNW 8.1 mph 19.6 mph N/A   Overcast
4:55 AM 51.8 °F - 48.2 °F 88% 29.08 in 10.0 mi WNW 10.4 mph 17.3 mph N/A Rain Light Rain
5:15 AM 50.0 °F - 48.2 °F 94% 29.09 in 5.0 mi NW 10.4 mph 18.4 mph 0.01 in   Heavy Drizzle
5:35 AM 50.0 °F - 48.2 °F 94% 29.10 in 5.0 mi West 8.1 mph - 0.07 in Rain Rain
5:55 AM 48.2 °F - 46.4 °F 93% 29.13 in 5.0 mi West 10.4 mph 21.9 mph 0.01 in Rain Rain
6:15 AM 48.2 °F - 46.4 °F 93% 29.16 in 10.0 mi West 10.4 mph - 0.03 in Rain Light Rain
6:35 AM 48.2 °F - 44.6 °F 87% 29.18 in 10.0 mi West 12.7 mph 23.0 mph 0.05 in Rain Rain
6:45 AM 48.2 °F - 42.8 °F 82% 29.18 in 5.0 mi West 16.1 mph 23.0 mph N/A Rain Rain
7:45 AM 46.4 °F 40.4 °F 41.0 °F 81% 29.28 in 10.0 mi West 13.8 mph 27.6 mph N/A   Mostly Cloudy
8:45 AM 46.4 °F 40.1 °F 39.2 °F 76% 29.36 in 10.0 mi West 15.0 mph 39.1 mph N/A   Mostly Cloudy
8:46 AM 46.4 °F 40.1 °F 39.2 °F 76% 29.36 in 10.0 mi West 15.0 mph 27.6 mph N/A   Mostly Cloudy
9:45 AM 48.2 °F - 39.2 °F 71% 29.41 in 10.0 mi WNW 17.3 mph 24.2 mph N/A   Mostly Cloudy
10:45 AM 51.8 °F - 39.2 °F 62% 29.47 in 10.0 mi WNW 12.7 mph 27.6 mph N/A   Mostly Cloudy
11:50 AM 53.6 °F - 37.4 °F 54% 29.54 in 10.0 mi WNW 26.5 mph 39.1 mph N/A   Mostly Cloudy
12:45 PM 53.6 °F - 37.4 °F 54% 29.57 in 10.0 mi West 10.4 mph 32.2 mph N/A   Scattered Clouds
1:45 PM 53.6 °F - 35.6 °F 51% 29.62 in 10.0 mi West 19.6 mph 29.9 mph N/A   Mostly Cloudy
2:45 PM 55.4 °F - 32.0 °F 41% 29.66 in 10.0 mi WNW 19.6 mph 26.5 mph N/A   Scattered Clouds
3:45 PM 55.4 °F - 33.8 °F 44% 29.68 in 15.0 mi West 12.7 mph 21.9 mph N/A   Partly Cloudy
4:45 PM 53.6 °F - 33.8 °F 47% 29.72 in 15.0 mi West 13.8 mph 21.9 mph N/A   Clear
4:46 PM 53.6 °F - 33.8 °F 47% 29.72 in 15.0 mi West 13.8 mph 21.9 mph N/A   Clear
5:45 PM 53.6 °F - 33.8 °F 47% 29.74 in 15.0 mi West 6.9 mph 12.7 mph N/A   Clear
6:45 PM 51.8 °F - 33.8 °F 50% 29.76 in 15.0 mi WSW 8.1 mph - N/A   Clear
7:59 PM 48.2 °F - 33.8 °F 58% 29.79 in 10.0 mi SSW 8.1 mph - N/A   Clear
8:45 PM 50.0 °F - 33.8 °F 54% 29.81 in 10.0 mi WSW 8.1 mph - N/A   Clear
9:45 PM 50.0 °F - 33.8 °F 54% 29.82 in 10.0 mi SW 10.4 mph - N/A   Scattered Clouds
10:35 PM 48.2 °F - 35.6 °F 62% 29.83 in 10.0 mi SSW 4.6 mph - N/A   Clear
10:55 PM 48.2 °F - 35.6 °F 62% 29.84 in 10.0 mi SSW 6.9 mph - N/A   Clear
11:15 PM 48.2 °F - 35.6 °F 62% 29.85 in 10.0 mi SSW 5.8 mph - N/A   Clear
11:35 PM 48.2 °F - 35.6 °F 62% 29.86 in 10.0 mi SSW 5.8 mph - N/A   Clear
11:55 PM 48.2 °F - 35.6 °F 62% 29.87 in 10.0 mi SSW 4.6 mph - N/A   Clear